• In Russia
  • List of Countries
  • For 7 days
  • Water Temperature
  • Satellite Maps
  • Weather Map
  • Weather Widgets
  • user-avatar
    Login

    Hourly Weather Solden

    Today, 4 December, Sunday

    Time Temperature Precipitation Wind Pressure Humidity
    00:00 -8°C° 0 mm 1 mps 581 mmHg 94%
    01:00 -8°C° 0 mm 1 mps 581 mmHg 94%
    02:00 -8°C° 0 mm 1 mps 581 mmHg 94%
    03:00 -8°C° 0 mm 1 mps 581 mmHg 94%
    04:00 -8°C° 0 mm 1 mps 581 mmHg 94%
    05:00 -8°C° 0 mm 1 mps 581 mmHg 94%
    06:00 -8°C° 0 mm 1 mps 581 mmHg 94%
    07:00 -9°C° 0 mm 1 mps 581 mmHg 94%
    08:00 -7°C° 0 mm 1 mps 582 mmHg 90%
    09:00 -6°C° 0 mm 1 mps 583 mmHg 86%
    10:00 -3°C° 0 mm 1 mps 584 mmHg 82%
    11:00 -3°C° 0 mm 1 mps 584 mmHg 81%
    12:00 -2°C° 0 mm 1 mps 584 mmHg 79%
    13:00 -1°C° 0 mm 1 mps 584 mmHg 77%
    14:00 -2°C° 0 mm 1 mps 584 mmHg 82%
    15:00 -4°C° 0 mm 1 mps 583 mmHg 87%
    16:00 -6°C° 0 mm 1 mps 582 mmHg 93%
    17:00 -7°C° 0 mm 1 mps 582 mmHg 93%
    18:00 -7°C° 0 mm 1 mps 582 mmHg 94%
    19:00 -8°C° 0 mm 1 mps 582 mmHg 94%
    20:00 -8°C° 0 mm 1 mps 582 mmHg 94%
    21:00 -8°C° 0 mm 1 mps 582 mmHg 94%
    22:00 -8°C° 0 mm 1 mps 582 mmHg 94%
    23:00 -8°C° 0 mm 1 mps 583 mmHg 94%

    Tomorrow, 5 December, Monday

    Time Temperature Precipitation Wind Pressure Humidity
    00:00 -8°C° 0 mm 1 mps 583 mmHg 94%
    01:00 -8°C° 0 mm 1 mps 583 mmHg 94%
    02:00 -8°C° 0 mm 1 mps 583 mmHg 94%
    03:00 -8°C° 0 mm 1 mps 582 mmHg 94%
    04:00 -8°C° 0 mm 1 mps 582 mmHg 94%
    05:00 -9°C° 0 mm 1 mps 582 mmHg 94%
    06:00 -9°C° 0 mm 1 mps 582 mmHg 94%
    07:00 -9°C° 0 mm 1 mps 582 mmHg 94%
    08:00 -8°C° 0 mm 1 mps 583 mmHg 90%
    09:00 -6°C° 0 mm 1 mps 584 mmHg 86%
    10:00 -4°C° 0 mm 1 mps 585 mmHg 82%
    11:00 -3°C° 0 mm 1 mps 585 mmHg 80%
    12:00 -2°C° 0 mm 1 mps 585 mmHg 78%
    13:00 -1°C° 0 mm 1 mps 585 mmHg 75%
    14:00 -3°C° 0 mm 1 mps 584 mmHg 81%
    15:00 -6°C° 0 mm 0 mps 583 mmHg 87%
    16:00 -8°C° 0 mm 0 mps 582 mmHg 92%
    17:00 -8°C° 0 mm 0 mps 582 mmHg 93%
    18:00 -9°C° 0 mm 0 mps 582 mmHg 93%
    19:00 -10°C° 0 mm 0 mps 581 mmHg 93%
    20:00 -10°C° 0 mm 0 mps 582 mmHg 93%
    21:00 -10°C° 0 mm 1 mps 582 mmHg 92%
    22:00 -10°C° 0 mm 1 mps 582 mmHg 91%
    23:00 -10°C° 0 mm 1 mps 582 mmHg 88%

    Day after tomorrow, 6 December, Tuesday

    Time Temperature Precipitation Wind Pressure Humidity
    00:00 -10°C° 0 mm 1 mps 582 mmHg 86%
    01:00 -10°C° 0 mm 1 mps 582 mmHg 84%
    02:00 -10°C° 0 mm 1 mps 582 mmHg 81%
    03:00 -10°C° 0 mm 1 mps 582 mmHg 78%
    04:00 -10°C° 0 mm 1 mps 582 mmHg 75%
    05:00 -10°C° 0 mm 1 mps 582 mmHg 74%
    06:00 -10°C° 0 mm 1 mps 582 mmHg 73%
    07:00 -10°C° 0 mm 2 mps 582 mmHg 71%
    08:00 -8°C° 0 mm 1 mps 583 mmHg 69%
    09:00 -6°C° 0 mm 1 mps 585 mmHg 67%
    10:00 -4°C° 0 mm 1 mps 586 mmHg 64%
    11:00 -3°C° 0 mm 1 mps 586 mmHg 64%
    12:00 -1°C° 0 mm 1 mps 586 mmHg 65%
    13:00 0°C° 0 mm 1 mps 586 mmHg 65%
    14:00 -2°C° 0 mm 1 mps 586 mmHg 70%
    15:00 -4°C° 0 mm 1 mps 585 mmHg 75%
    16:00 -6°C° 0 mm 1 mps 584 mmHg 80%
    17:00 -7°C° 0 mm 1 mps 584 mmHg 80%
    18:00 -7°C° 0 mm 1 mps 584 mmHg 80%
    19:00 -8°C° 0 mm 1 mps 584 mmHg 80%
    20:00 -8°C° 0 mm 1 mps 584 mmHg 78%
    21:00 -9°C° 0 mm 1 mps 584 mmHg 77%
    22:00 -9°C° 0 mm 1 mps 584 mmHg 75%
    23:00 -9°C° 0 mm 1 mps 584 mmHg 72%

    7 December, Wednesday

    Time Temperature Precipitation Wind Pressure Humidity
    00:00 -9°C° 0 mm 1 mps 584 mmHg 70%
    01:00 -9°C° 0 mm 1 mps 584 mmHg 67%
    02:00 -9°C° 0 mm 1 mps 583 mmHg 64%
    03:00 -10°C° 0 mm 1 mps 583 mmHg 60%
    04:00 -10°C° 0 mm 1 mps 583 mmHg 57%
    05:00 -10°C° 0 mm 1 mps 583 mmHg 55%
    06:00 -10°C° 0 mm 1 mps 583 mmHg 53%
    07:00 -10°C° 0 mm 1 mps 583 mmHg 50%
    08:00 -8°C° 0 mm 1 mps 585 mmHg 50%
    09:00 -6°C° 0 mm 1 mps 586 mmHg 49%
    10:00 -4°C° 0 mm 0 mps 587 mmHg 48%
    11:00 -3°C° 0 mm 0 mps 588 mmHg 50%
    12:00 -2°C° 0 mm 0 mps 588 mmHg 52%
    13:00 0°C° 0 mm 1 mps 589 mmHg 54%
    14:00 -3°C° 0 mm 0 mps 588 mmHg 57%
    15:00 -5°C° 0 mm 0 mps 586 mmHg 59%
    16:00 -7°C° 0 mm 0 mps 585 mmHg 61%
    17:00 -7°C° 0 mm 0 mps 585 mmHg 61%
    18:00 -8°C° 0 mm 0 mps 585 mmHg 60%
    19:00 -9°C° 0 mm 0 mps 585 mmHg 60%
    20:00 -9°C° 0 mm 1 mps 585 mmHg 58%
    21:00 -9°C° 0 mm 1 mps 585 mmHg 56%
    22:00 -9°C° 0 mm 1 mps 585 mmHg 54%
    23:00 -9°C° 0 mm 1 mps 585 mmHg 53%

    8 December, Thursday

    Time Temperature Precipitation Wind Pressure Humidity
    00:00 -9°C° 0 mm 1 mps 585 mmHg 52%
    01:00 -9°C° 0 mm 1 mps 585 mmHg 51%
    02:00 -9°C° 0 mm 0 mps 585 mmHg 50%
    03:00 -9°C° 0 mm 0 mps 585 mmHg 49%
    04:00 -9°C° 0 mm 0 mps 585 mmHg 48%
    05:00 -9°C° 0 mm 0 mps 585 mmHg 48%
    06:00 -9°C° 0 mm 0 mps 585 mmHg 48%
    07:00 -9°C° 0 mm 0 mps 585 mmHg 47%
    08:00 -7°C° 0 mm 0 mps 586 mmHg 47%
    09:00 -5°C° 0 mm 0 mps 587 mmHg 46%
    10:00 -3°C° 0 mm 0 mps 589 mmHg 46%
    11:00 -2°C° 0 mm 0 mps 589 mmHg 47%
    12:00 0°C° 0 mm 0 mps 589 mmHg 49%
    13:00 +1°C° 0 mm 0 mps 590 mmHg 51%
    14:00 0°C° 0 mm 1 mps 589 mmHg 50%
    15:00 -2°C° 0 mm 1 mps 587 mmHg 49%
    16:00 -4°C° 0 mm 1 mps 586 mmHg 48%
    17:00 -4°C° 0 mm 1 mps 587 mmHg 49%
    18:00 -4°C° 0 mm 1 mps 587 mmHg 50%
    19:00 -4°C° 0 mm 1 mps 587 mmHg 51%
    20:00 -3°C° 0 mm 1 mps 587 mmHg 52%
    21:00 -3°C° 0 mm 1 mps 588 mmHg 52%
    22:00 -3°C° 0 mm 1 mps 588 mmHg 53%
    23:00 -3°C° 0 mm 1 mps 588 mmHg 54%

    9 December, Friday

    Time Temperature Precipitation Wind Pressure Humidity
    00:00 -3°C° 0 mm 1 mps 587 mmHg 55%
    01:00 -3°C° 0 mm 1 mps 587 mmHg 56%
    02:00 -4°C° 0 mm 1 mps 587 mmHg 59%
    03:00 -4°C° 0 mm 1 mps 586 mmHg 62%
    04:00 -4°C° 0 mm 1 mps 586 mmHg 65%
    05:00 -4°C° 0 mm 1 mps 586 mmHg 67%
    06:00 -6°C° 0 mm 1 mps 586 mmHg 68%
    07:00 -6°C° 0 mm 1 mps 586 mmHg 70%
    08:00 -3°C° 0 mm 1 mps 587 mmHg 68%
    09:00 -2°C° 0 mm 1 mps 588 mmHg 66%
    10:00 0°C° 0 mm 1 mps 589 mmHg 63%
    11:00 +1°C° 0 mm 1 mps 589 mmHg 64%
    12:00 +2°C° 0 mm 1 mps 589 mmHg 65%
    13:00 +3°C° 0 mm 1 mps 589 mmHg 66%
    14:00 +1°C° 0 mm 1 mps 588 mmHg 68%
    15:00 0°C° 0 mm 1 mps 587 mmHg 69%
    16:00 -2°C° 0 mm 1 mps 586 mmHg 71%
    17:00 -3°C° 0 mm 1 mps 585 mmHg 71%
    18:00 -4°C° 0 mm 1 mps 585 mmHg 71%
    19:00 -4°C° 0 mm 1 mps 585 mmHg 70%
    20:00 -4°C° 0 mm 1 mps 585 mmHg 68%
    21:00 -4°C° 0 mm 1 mps 585 mmHg 66%
    22:00 -4°C° 0 mm 1 mps 585 mmHg 64%
    23:00 -4°C° 0 mm 1 mps 584 mmHg 62%
    Show more